Weather History for Shawano, WI

Change the Weather History Date:

Friday, February 8, 2013

  Actual Average (KGRB) Record (KGRB)
Temperature  
Mean Temperature 16 °F 18 °F  
Max Temperature 30 °F 26 °F 56 °F (1925)
Min Temperature 3 °F 11 °F -22 °F (1951)
Degree Days  
Heating Degree Days 48 47  
Month to date heating degree days 378  
Since 1 July heating degree days 4967  
Cooling Degree Days 0 0  
Month to date cooling degree days 0  
Year to date cooling degree days 0  
Moisture  
Dew Point 13 °F    
Average Humidity 76    
Maximum Humidity 93    
Minimum Humidity 55    
Precipitation  
Precipitation 0.00 in 0.03 in 1.78 in (1966)
Month to date precipitation 0.26  
Year to date precipitation 1.39  
Snow  
Snow 0.00 in 0.30 in 5.70 in (1950)
Month to date snowfall 3.0  
Since 1 July snowfall 33.3  
Snow Depth -    
Sea Level Pressure  
Sea Level Pressure 30.30 in    
Wind  
Wind Speed 7 mph (NNE)    
Max Wind Speed 16 mph    
Max Gust Speed 20 mph    
Visibility 9 miles    
Events Fog , Snow    
T = Trace of Precipitation, MM = Missing Value Source: NWS Daily Summary

Daily Weather History Graph

Daily Weather History Graph

Search for Another Location

Airport:

Trip Planner

Search our weather history database for the weather conditions in past years. The results will help you decide how hot, cold, wet, or windy it might be!

Date:

Astronomy

Feb. 08, 2013 Rise Set
Actual Time 7:04 AM CST 5:13 PM CST
Civil Twilight 6:33 AM CST 5:43 PM CST
Nautical Twilight 5:59 AM CST 6:18 PM CST
Astronomical Twilight 5:25 AM CST 6:52 PM CST
Moon 5:35 AM CST (2/8) 3:45 PM CST (2/8)
Length of Visible Light 11h 09m
Length of Day
10h 08m
Waning Crescent, 3% of the Moon is Illuminated
Feb 8
Waning Crescent
Feb 10
New
Feb 17
First Quarter
Feb 25
Full
Mar 4
Last Quarter

Hourly Weather History & Observations

Time (CST) Temp. Windchill Dew Point Humidity Pressure Visibility Wind Dir Wind Speed Gust Speed Precip Events Conditions
12:15 AM 24.8 °F 14.6 °F 21.2 °F 86% 30.14 in 4.0 mi North 10.4 mph 13.8 mph N/A Snow Light Snow
12:35 AM 24.8 °F 11.9 °F 21.2 °F 86% 30.14 in 7.0 mi NNE 16.1 mph - N/A Snow Light Snow
12:55 AM 24.8 °F 14.0 °F 19.4 °F 80% 30.15 in 10.0 mi North 11.5 mph 18.4 mph N/A   Overcast
1:15 AM 24.8 °F 12.4 °F 19.4 °F 80% 30.15 in 10.0 mi North 15.0 mph 19.6 mph N/A   Overcast
1:35 AM 24.8 °F 14.6 °F 19.4 °F 80% 30.17 in 10.0 mi North 10.4 mph - N/A   Overcast
1:55 AM 23.0 °F 13.1 °F 19.4 °F 86% 30.17 in 10.0 mi North 9.2 mph - N/A   Overcast
2:15 AM 23.0 °F 12.4 °F 17.6 °F 80% 30.17 in 10.0 mi North 10.4 mph - N/A   Overcast
2:35 AM 23.0 °F 11.1 °F 17.6 °F 80% 30.18 in 10.0 mi North 12.7 mph 18.4 mph N/A   Overcast
2:55 AM 23.0 °F 13.1 °F 17.6 °F 80% 30.18 in 10.0 mi North 9.2 mph - N/A   Overcast
3:15 AM 23.0 °F 13.1 °F 17.6 °F 80% 30.19 in 10.0 mi North 9.2 mph - N/A   Overcast
3:35 AM 23.0 °F 13.9 °F 17.6 °F 80% 30.20 in 10.0 mi North 8.1 mph - N/A   Overcast
3:55 AM 21.2 °F 8.9 °F 15.8 °F 80% 30.20 in 10.0 mi North 12.7 mph - N/A   Overcast
4:15 AM 21.2 °F 9.5 °F 15.8 °F 80% 30.21 in 10.0 mi North 11.5 mph - N/A   Overcast
4:35 AM 19.4 °F 8.6 °F 14.0 °F 80% 30.22 in 10.0 mi North 9.2 mph - N/A   Mostly Cloudy
4:55 AM 19.4 °F 9.5 °F 14.0 °F 80% 30.22 in 10.0 mi North 8.1 mph - N/A   Scattered Clouds
5:15 AM 17.6 °F 8.2 °F 12.2 °F 79% 30.23 in 10.0 mi North 6.9 mph - N/A   Clear
5:35 AM 17.6 °F 9.3 °F 12.2 °F 79% 30.23 in 10.0 mi North 5.8 mph - N/A   Clear
5:55 AM 17.6 °F 10.7 °F 12.2 °F 79% 30.24 in 10.0 mi North 4.6 mph - N/A   Clear
6:15 AM 15.8 °F 8.6 °F 12.2 °F 86% 30.25 in 10.0 mi North 4.6 mph - N/A   Clear
6:35 AM 14.0 °F - 10.4 °F 86% 30.26 in 10.0 mi Calm Calm - N/A   Clear
6:55 AM 14.0 °F 6.5 °F 10.4 °F 86% 30.27 in 10.0 mi North 4.6 mph - N/A   Clear
7:15 AM 14.0 °F 8.2 °F 10.4 °F 86% 30.28 in 10.0 mi North 3.5 mph - N/A   Clear
7:35 AM 15.8 °F 8.6 °F 10.4 °F 79% 30.29 in 10.0 mi North 4.6 mph - N/A   Clear
7:55 AM 14.0 °F 6.5 °F 10.4 °F 86% 30.31 in 10.0 mi North 4.6 mph - N/A   Clear
8:15 AM 17.6 °F 7.3 °F 10.4 °F 73% 30.31 in 10.0 mi North 8.1 mph - N/A   Clear
8:35 AM 17.6 °F 6.4 °F 10.4 °F 73% 30.31 in 10.0 mi North 9.2 mph - N/A   Clear
8:55 AM 17.6 °F 6.4 °F 12.2 °F 79% 30.31 in 10.0 mi North 9.2 mph - N/A   Clear
9:15 AM 19.4 °F 10.4 °F 12.2 °F 74% 30.32 in 10.0 mi NNE 6.9 mph - N/A   Clear
9:35 AM 19.4 °F 9.5 °F 12.2 °F 74% 30.32 in 10.0 mi NNE 8.1 mph - N/A   Clear
9:55 AM 19.4 °F 8.6 °F 12.2 °F 74% 30.32 in 10.0 mi NNE 9.2 mph - N/A   Clear
10:15 AM 21.2 °F 11.7 °F 14.0 °F 74% 30.33 in 10.0 mi NNE 8.1 mph - N/A   Clear
10:35 AM 21.2 °F 10.1 °F 14.0 °F 74% 30.33 in 10.0 mi NNE 10.4 mph - N/A   Clear
10:55 AM 23.0 °F 13.1 °F 14.0 °F 68% 30.34 in 10.0 mi NNE 9.2 mph - N/A   Clear
11:15 AM 23.0 °F 15.8 °F 14.0 °F 68% 30.34 in 10.0 mi NE 5.8 mph - N/A   Clear
11:35 AM 24.8 °F 16.9 °F 14.0 °F 64% 30.34 in 10.0 mi NE 6.9 mph - N/A   Clear
11:55 AM 24.8 °F 19.1 °F 15.8 °F 69% 30.33 in 10.0 mi NE 4.6 mph - N/A   Clear
12:15 PM 26.6 °F 18.2 °F 15.8 °F 64% 30.33 in 10.0 mi North 8.1 mph - N/A   Scattered Clouds
12:35 PM 26.6 °F - 15.8 °F 64% 30.32 in 10.0 mi Calm Calm - N/A   Clear
12:55 PM 26.6 °F 22.6 °F 17.6 °F 69% 30.32 in 10.0 mi North 3.5 mph - N/A   Clear
1:15 PM 28.4 °F 24.6 °F 15.8 °F 59% 30.32 in 10.0 mi ENE 3.5 mph - N/A   Clear
1:35 PM 28.4 °F 24.6 °F 15.8 °F 59% 30.33 in 10.0 mi ENE 3.5 mph - N/A   Clear
1:55 PM 30.2 °F - 17.6 °F 60% 30.32 in 10.0 mi Calm Calm - N/A   Clear
2:15 PM 28.4 °F - 17.6 °F 64% 30.33 in 10.0 mi Calm Calm - N/A   Clear
2:35 PM 30.2 °F - 15.8 °F 55% 30.33 in 10.0 mi Calm Calm - N/A   Clear
2:55 PM 28.4 °F - 17.6 °F 64% 30.33 in 10.0 mi Calm Calm - N/A   Clear
3:15 PM 28.4 °F - 15.8 °F 59% 30.33 in 10.0 mi Calm Calm - N/A   Clear
3:35 PM 30.2 °F - 15.8 °F 55% 30.33 in 10.0 mi Calm Calm - N/A   Clear
3:55 PM 30.2 °F - 15.8 °F 55% 30.33 in 10.0 mi Calm Calm - N/A   Clear
4:15 PM 28.4 °F - 15.8 °F 59% 30.33 in 10.0 mi Calm Calm - N/A   Clear
4:35 PM 28.4 °F - 15.8 °F 59% 30.33 in 10.0 mi Calm Calm - N/A   Clear
4:55 PM 26.6 °F - 15.8 °F 64% 30.33 in 10.0 mi Calm Calm - N/A   Clear
5:15 PM 24.8 °F 20.5 °F 15.8 °F 69% 30.33 in 10.0 mi SE 3.5 mph - N/A   Clear
5:35 PM 21.2 °F 14.9 °F 14.0 °F 74% 30.32 in 10.0 mi ESE 4.6 mph - N/A   Clear
5:55 PM 19.4 °F - 12.2 °F 74% 30.33 in 10.0 mi Calm Calm - N/A   Clear
6:15 PM 17.6 °F - 12.2 °F 79% 30.34 in 10.0 mi Calm Calm - N/A   Clear
6:35 PM 17.6 °F - 14.0 °F 86% 30.34 in 10.0 mi Calm Calm - N/A   Clear
6:55 PM 19.4 °F - 17.6 °F 93% 30.34 in 10.0 mi Calm Calm - N/A   Clear
7:15 PM 14.0 °F - 10.4 °F 86% 30.34 in 10.0 mi Calm Calm - N/A   Clear
7:35 PM 12.2 °F - 10.4 °F 92% 30.34 in 10.0 mi Calm Calm - N/A   Clear
7:55 PM 12.2 °F - 8.6 °F 85% 30.35 in 1.5 mi Calm Calm - N/A   Mist
8:15 PM 14.0 °F - 12.2 °F 93% 30.36 in 4.0 mi Calm Calm - N/A   Clear
8:35 PM 14.0 °F - 10.4 °F 86% 30.36 in 10.0 mi Calm Calm - N/A   Clear
8:55 PM 12.2 °F - 8.6 °F 85% 30.36 in 10.0 mi Calm Calm - N/A   Clear
9:15 PM 10.4 °F - 6.8 °F 85% 30.36 in 10.0 mi Calm Calm - N/A   Clear
9:35 PM 6.8 °F - 3.2 °F 85% 30.37 in 7.0 mi Calm Calm - N/A   Clear
9:55 PM 5.0 °F - 1.4 °F 85% 30.37 in 0.5 mi Calm Calm - N/A   Haze
10:15 PM 5.0 °F - 1.4 °F 85% 30.37 in 0.2 mi Calm Calm - N/A Fog Light Freezing Fog
10:35 PM 3.2 °F - -0.4 °F 85% 30.37 in 2.5 mi Calm Calm - N/A   Haze
10:55 PM 5.0 °F - 1.4 °F 85% 30.36 in 0.5 mi Calm Calm - N/A Fog Light Freezing Fog
11:15 PM 5.0 °F - 1.4 °F 85% 30.36 in 3.0 mi Calm Calm - N/A   Clear
11:35 PM 5.0 °F - 1.4 °F 85% 30.37 in 4.0 mi Calm Calm - N/A   Clear
11:55 PM 5.0 °F - 1.4 °F 85% 30.37 in 7.0 mi Calm Calm - N/A   Clear